| time (UTC) | temp F | wind direction | speed knots | gust knots | rain 1hr in | rain 24hr in | rain mn in | humidity % | barometer mb |
| 20260502231611 | 48 | 287 | 2.6 | 6.1 | 0.00 | 0.00 | 0.00 | 44 | 1011.8 |
| 20260502230527 | 48 | 289 | 2.6 | 6.1 | 0.00 | 0.00 | 0.00 | 45 | 1011.9 |
| 20260502225523 | 48 | 281 | 2.6 | 7.8 | 0.00 | 0.00 | 0.00 | 45 | 1011.9 |
| 20260502224519 | 48 | 283 | 2.6 | 8.7 | 0.00 | 0.00 | 0.00 | 43 | 1011.9 |
| 20260502223535 | 48 | 278 | 2.6 | 7.8 | 0.00 | 0.00 | 0.00 | 44 | 1012.0 |
| 20260502222531 | 48 | 289 | 2.6 | 7.0 | 0.00 | 0.00 | 0.00 | 46 | 1011.9 |
| 20260502221607 | 48 | 287 | 2.6 | 7.0 | 0.00 | 0.00 | 0.00 | 45 | 1012.0 |
| 20260502220524 | 48 | 295 | 3.5 | 7.8 | 0.00 | 0.00 | 0.00 | 44 | 1011.9 |
| 20260502215519 | 48 | 277 | 3.5 | 7.8 | 0.00 | 0.00 | 0.00 | 44 | 1012.1 |
| 20260502214515 | 48 | 289 | 3.5 | 7.0 | 0.00 | 0.00 | 0.00 | 44 | 1012.1 |
| 20260502213531 | 48 | 281 | 3.5 | 8.7 | 0.00 | 0.00 | 0.00 | 44 | 1012.1 |
| 20260502212527 | 48 | 277 | 2.6 | 8.7 | 0.00 | 0.00 | 0.00 | 42 | 1012.0 |
| 20260502211524 | 48 | 279 | 5.2 | 11.3 | 0.00 | 0.00 | 0.00 | 43 | 1012.1 |
| 20260502210519 | 48 | 273 | 2.6 | 5.2 | 0.00 | 0.00 | 0.00 | 42 | 1012.1 |
| 20260502205556 | 48 | 281 | 5.2 | 9.6 | 0.00 | 0.00 | 0.00 | 43 | 1012.1 |
| 20260502204532 | 48 | 281 | 4.3 | 9.6 | 0.00 | 0.00 | 0.00 | 43 | 1012.2 |
| 20260502203527 | 49 | 280 | 3.5 | 7.8 | 0.00 | 0.00 | 0.00 | 42 | 1012.2 |
| 20260502202524 | 48 | 282 | 1.7 | 6.1 | 0.00 | 0.00 | 0.00 | 43 | 1012.3 |
| 20260502201520 | 48 | 283 | 2.6 | 6.1 | 0.00 | 0.00 | 0.00 | 42 | 1012.4 |
| 20260502200516 | 48 | 285 | 3.5 | 7.0 | 0.00 | 0.00 | 0.00 | 44 | 1012.5 |
| 20260502195532 | 48 | 286 | 3.5 | 7.0 | 0.00 | 0.00 | 0.00 | 42 | 1012.6 |
| 20260502194528 | 49 | 296 | 3.5 | 11.3 | 0.00 | 0.00 | 0.00 | 43 | 1012.7 |
| 20260502193524 | 49 | 278 | 2.6 | 7.0 | 0.00 | 0.00 | 0.00 | 43 | 1012.7 |
| 20260502192520 | 48 | 289 | 2.6 | 6.1 | 0.00 | 0.00 | 0.00 | 43 | 1012.9 |
| 20260502191536 | 48 | 254 | 2.6 | 7.0 | 0.00 | 0.00 | 0.00 | 43 | 1012.9 |
| 20260502190552 | 48 | 272 | 4.3 | 7.8 | 0.00 | 0.00 | 0.00 | 42 | 1013.0 |
| 20260502185527 | 47 | 283 | 3.5 | 7.0 | 0.00 | 0.00 | 0.00 | 43 | 1013.0 |
| 20260502184524 | 48 | 268 | 5.2 | 8.7 | 0.00 | 0.00 | 0.00 | 42 | 1013.1 |
| 20260502183520 | 48 | 287 | 4.3 | 7.8 | 0.00 | 0.00 | 0.00 | 42 | 1013.1 |
| 20260502182556 | 48 | 297 | 2.6 | 6.1 | 0.00 | 0.00 | 0.00 | 43 | 1013.0 |
| 20260502181532 | 49 | 293 | 3.5 | 8.7 | 0.00 | 0.00 | 0.00 | 42 | 1013.1 |
| 20260502180527 | 50 | 298 | 4.3 | 7.8 | 0.00 | 0.00 | 0.00 | 45 | 1013.3 |
| 20260502163531 | 46 | 328 | 2.6 | 7.8 | 0.00 | 0.00 | 0.00 | 50 | 1013.6 |
| 20260502162527 | 46 | 318 | 1.7 | 5.2 | 0.00 | 0.00 | 0.00 | 50 | 1013.7 |
| 20260502161524 | 46 | 316 | 2.6 | 6.1 | 0.00 | 0.00 | 0.00 | 51 | 1013.7 |
| 20260502160519 | 46 | 327 | 2.6 | 7.0 | 0.00 | 0.00 | 0.00 | 52 | 1013.7 |
| 20260502151520 | 45 | 334 | 3.5 | 7.0 | 0.00 | 0.00 | 0.00 | 56 | 1013.8 |
| 20260502150515 | 45 | 336 | 3.5 | 7.8 | 0.00 | 0.00 | 0.00 | 55 | 1013.6 |
| 20260502130527 | 43 | 335 | 3.5 | 6.1 | 0.00 | 0.00 | 0.00 | 65 | 1014.0 |
| 20260502123535 | 42 | 0 | 0.9 | 3.5 | 0.00 | 0.00 | 0.00 | 69 | 1013.8 |
| 20260502122530 | 41 | 344 | 2.6 | 3.5 | 0.00 | 0.00 | 0.00 | 69 | 1013.8 |
| 20260502121527 | 40 | 338 | 2.6 | 6.1 | 0.00 | 0.00 | 0.00 | 71 | 1013.8 |
| 20260502120522 | 40 | 339 | 1.7 | 5.2 | 0.00 | 0.00 | 0.00 | 72 | 1013.8 |
| 20260502115518 | 39 | 339 | 2.6 | 6.1 | 0.00 | 0.00 | 0.00 | 72 | 1013.8 |
| 20260502114534 | 39 | 340 | 2.6 | 3.5 | 0.00 | 0.00 | 0.00 | 72 | 1013.7 |
| 20260502113530 | 38 | 342 | 0.9 | 1.7 | 0.00 | 0.00 | 0.00 | 72 | 1013.7 |
| 20260502112546 | 38 | 341 | 0.9 | 2.6 | 0.00 | 0.00 | 0.00 | 72 | 1013.6 |
| 20260502111522 | 38 | 341 | 0.9 | 1.7 | 0.00 | 0.00 | 0.00 | 72 | 1013.5 |
| 20260502110518 | 38 | 341 | 0.9 | 2.6 | 0.00 | 0.00 | 0.00 | 72 | 1013.4 |
| 20260502105534 | 38 | 341 | 0.9 | 1.7 | 0.00 | 0.00 | 0.00 | 72 | 1013.3 |
| 20260502104529 | 38 | 341 | 0.9 | 1.7 | 0.00 | 0.00 | 0.00 | 71 | 1013.4 |
| 20260502103525 | 38 | 341 | 0.9 | 1.7 | 0.00 | 0.00 | 0.00 | 71 | 1013.3 |
| 20260502102541 | 38 | 341 | 1.7 | 2.6 | 0.00 | 0.00 | 0.00 | 71 | 1013.3 |
| 20260502100553 | 38 | 341 | 1.7 | 2.6 | 0.00 | 0.00 | 0.00 | 71 | 1013.2 |
| 20260502091532 | 38 | 341 | 1.7 | 2.6 | 0.00 | 0.00 | 0.00 | 70 | 1013.2 |
| 20260502090528 | 38 | 342 | 0.9 | 1.7 | 0.00 | 0.00 | 0.00 | 70 | 1013.1 |
| 20260502071522 | 38 | 0.0 | 0.0 | 0.00 | 0.00 | 0.00 | 70 | 1012.7 | |
| 20260502070518 | 38 | 50 | 0.0 | 1.7 | 0.00 | 0.00 | 0.00 | 72 | 1012.7 |
| 20260502065534 | 39 | 341 | 0.9 | 3.5 | 0.00 | 0.00 | 0.00 | 72 | 1012.9 |
| 20260502064529 | 39 | 341 | 0.9 | 0.9 | 0.00 | 0.00 | 0.00 | 71 | 1013.1 |
| 20260502063525 | 39 | 341 | 0.9 | 2.6 | 0.00 | 0.00 | 0.00 | 71 | 1013.1 |
| 20260502062521 | 39 | 342 | 1.7 | 3.5 | 0.00 | 0.00 | 0.00 | 70 | 1013.3 |
| 20260502061517 | 39 | 343 | 1.7 | 3.5 | 0.00 | 0.00 | 0.00 | 70 | 1013.3 |
| 20260502060533 | 39 | 350 | 0.9 | 1.7 | 0.00 | 0.00 | 0.00 | 69 | 1013.2 |
| 20260502055528 | 39 | 348 | 0.0 | 1.7 | 0.00 | 0.00 | 0.00 | 70 | 1013.4 |
| 20260502054545 | 39 | 348 | 0.0 | 0.9 | 0.00 | 0.00 | 0.00 | 70 | 1013.5 |
| 20260502053541 | 39 | 33 | 0.9 | 1.7 | 0.00 | 0.00 | 0.00 | 70 | 1013.4 |
| 20260502052516 | 39 | 52 | 0.9 | 1.7 | 0.00 | 0.00 | 0.00 | 69 | 1013.4 |
| 20260502051553 | 39 | 52 | 0.0 | 1.7 | 0.00 | 0.00 | 0.00 | 69 | 1013.4 |
| 20260502050529 | 39 | 48 | 0.9 | 2.6 | 0.00 | 0.00 | 0.00 | 69 | 1013.4 |
| 20260502045525 | 39 | 356 | 0.9 | 2.6 | 0.00 | 0.00 | 0.00 | 68 | 1013.4 |
| 20260502044520 | 39 | 53 | 0.0 | 2.6 | 0.00 | 0.00 | 0.00 | 68 | 1013.2 |
| 20260502043516 | 40 | 49 | 0.9 | 5.2 | 0.00 | 0.00 | 0.00 | 68 | 1013.1 |
| 20260502042533 | 40 | 31 | 1.7 | 3.5 | 0.00 | 0.00 | 0.00 | 67 | 1013.0 |
| 20260502041529 | 40 | 32 | 0.9 | 1.7 | 0.00 | 0.00 | 0.00 | 67 | 1013.1 |
| 20260502040525 | 39 | 57 | 0.9 | 3.5 | 0.00 | 0.00 | 0.00 | 67 | 1012.9 |
| 20260502035521 | 39 | 55 | 0.9 | 2.6 | 0.00 | 0.00 | 0.00 | 66 | 1013.0 |
| 20260502034517 | 39 | 57 | 0.9 | 1.7 | 0.00 | 0.00 | 0.00 | 66 | 1012.9 |
| 20260502033533 | 40 | 40 | 0.9 | 2.6 | 0.00 | 0.00 | 0.00 | 65 | 1013.0 |
| 20260502032529 | 40 | 46 | 0.9 | 2.6 | 0.00 | 0.00 | 0.00 | 64 | 1013.0 |
| 20260502031525 | 40 | 337 | 0.0 | 2.6 | 0.00 | 0.00 | 0.00 | 64 | 1012.9 |
| 20260502030521 | 40 | 348 | 1.7 | 6.1 | 0.00 | 0.00 | 0.00 | 65 | 1013.0 |
| 20260502025517 | 40 | 31 | 0.9 | 3.5 | 0.00 | 0.00 | 0.00 | 64 | 1012.9 |
| 20260502024533 | 40 | 24 | 1.7 | 3.5 | 0.00 | 0.00 | 0.00 | 64 | 1013.0 |
| 20260502023529 | 40 | 45 | 0.9 | 3.5 | 0.00 | 0.00 | 0.00 | 64 | 1013.0 |
| 20260502022525 | 41 | 31 | 2.6 | 5.2 | 0.00 | 0.00 | 0.00 | 64 | 1012.8 |
| 20260502021521 | 41 | 29 | 2.6 | 6.1 | 0.00 | 0.00 | 0.00 | 63 | 1012.7 |
| 20260502020517 | 41 | 53 | 1.7 | 6.1 | 0.00 | 0.00 | 0.00 | 62 | 1012.5 |
| 20260502015533 | 41 | 51 | 2.6 | 7.8 | 0.00 | 0.00 | 0.00 | 63 | 1012.4 |
| 20260502014529 | 41 | 57 | 1.7 | 6.1 | 0.00 | 0.00 | 0.00 | 64 | 1012.4 |
| 20260502013524 | 41 | 66 | 1.7 | 5.2 | 0.00 | 0.00 | 0.00 | 64 | 1012.1 |
| 20260502012519 | 41 | 70 | 1.7 | 7.8 | 0.00 | 0.00 | 0.00 | 64 | 1012.1 |
| 20260502011535 | 41 | 65 | 1.7 | 5.2 | 0.00 | 0.00 | 0.00 | 64 | 1012.1 |
| 20260502010530 | 41 | 65 | 2.6 | 6.1 | 0.00 | 0.00 | 0.00 | 64 | 1011.9 |
| 20260502005526 | 41 | 60 | 0.9 | 2.6 | 0.00 | 0.00 | 0.00 | 65 | 1011.9 |
| 20260502004521 | 41 | 57 | 0.9 | 5.2 | 0.00 | 0.00 | 0.00 | 63 | 1011.8 |
| 20260502003517 | 42 | 59 | 0.9 | 3.5 | 0.00 | 0.00 | 0.00 | 63 | 1011.8 |
| 20260502002553 | 42 | 57 | 1.7 | 5.2 | 0.00 | 0.00 | 0.00 | 60 | 1011.7 |
| 20260502001528 | 42 | 63 | 2.6 | 7.0 | 0.00 | 0.00 | 0.00 | 59 | 1011.7 |
| 20260502000524 | 42 | 62 | 1.7 | 7.0 | 0.00 | 0.00 | 0.00 | 60 | 1011.5 |
| 20260501235520 | 43 | 60 | 1.7 | 5.2 | 0.00 | 0.00 | 0.00 | 61 | 1011.3 |
| 20260501234536 | 43 | 63 | 2.6 | 7.0 | 0.00 | 0.00 | 0.00 | 65 | 1011.1 |
| 20260501233532 | 44 | 58 | 1.7 | 6.1 | 0.00 | 0.00 | 0.00 | 66 | 1011.0 |
| 20260501232528 | 44 | 61 | 2.6 | 6.1 | 0.00 | 0.00 | 0.00 | 67 | 1011.0 |